User: anonymous
Location: Maiden
(35.5760°N, 81.2120°W)
Time: 15:52:39
(UTC-04:00)
Language:

Cosmos 2151 - Orbit

View from above orbital plane
View from above orbital plane
View from above satellite
View from above satellite

Ground track
Ground track

The orbit data is extracted from the following two-line orbital elements,

1 21422U 91042A   14261.68082953  .00000886  00000-0  88496-4 0    39
2 21422 082.4996 119.7300 0015492 045.0508 315.1964 14.90293403259083
Epoch (UTC): 18 September 2014 16:20:23
Eccentricity: 0.0015492
inclination: 82.4996°
perigee height: 586 km
apogee height: 608 km
right ascension of ascending node: 119.7300°
argument of perigee: 45.0508°
revolutions per day: 14.90293403
mean anomaly at epoch: 315.1964°
orbit number at epoch: 25908

The dashed part of the orbit path shows where the satellite is in the earth's shadow,  

DLR